This is the latest recevied weather packets stored in our database for station/object KX4O-13. If no packets are shown the sender has not sent any weather packets the latest 1 day(s).
| Time | Temp. | Humidity | Pressure | Rain* | Wind** | Luminosity | Snow |
|---|---|---|---|---|---|---|---|
| 1777984255 | 17.22° C | 60% | 1012.4 hPa | 0 mm | 0.45 m/s, 197° | 272 W/m² | - |
| 1777983953 | 16.67° C | 61% | 1012.5 hPa | 0 mm | 0.89 m/s, 240° | 267 W/m² | - |
| 1777983653 | 16.67° C | 61% | 1012.5 hPa | 0 mm | 0.89 m/s, 229° | 255 W/m² | - |
| 1777983353 | 16.11° C | 62% | 1012.5 hPa | 0 mm | 0.45 m/s, 303° | 248 W/m² | - |
| 1777983053 | 16.11° C | 63% | 1012.4 hPa | 0 mm | 0.89 m/s, 230° | 163 W/m² | - |
| 1777982753 | 15.56° C | 63% | 1012.5 hPa | 0 mm | 0.89 m/s, 211° | 160 W/m² | - |
| 1777982453 | 15.56° C | 64% | 1012.4 hPa | 0 mm | 0.89 m/s, 250° | 74 W/m² | - |
| 1777982153 | 15.56° C | 64% | 1012.5 hPa | 0 mm | 0.89 m/s, 204° | 74 W/m² | - |
| 1777981855 | 15.56° C | 64% | 1012.4 hPa | 0 mm | 0.89 m/s, 219° | 74 W/m² | - |
| 1777981553 | 15° C | 66% | 1012.4 hPa | 0 mm | 0.45 m/s, 274° | 90 W/m² | - |
| 1777981253 | 15° C | 65% | 1012.3 hPa | 0 mm | 0.45 m/s, 238° | 135 W/m² | - |
| 1777980953 | 15° C | 67% | 1012.3 hPa | 0 mm | 0.45 m/s, 232° | 79 W/m² | - |
| 1777980655 | 14.44° C | 68% | 1012.3 hPa | 0 mm | 0.45 m/s, 176° | 63 W/m² | - |
| 1777980353 | 14.44° C | 68% | 1012.3 hPa | 0 mm | 1.34 m/s, 207° | 54 W/m² | - |
| 1777980053 | 13.89° C | 68% | 1012.1 hPa | 0 mm | 1.79 m/s, 213° | 53 W/m² | - |
| 1777979753 | 13.89° C | 68% | 1012.1 hPa | 0 mm | 1.34 m/s, 165° | 42 W/m² | - |
| 1777979453 | 13.89° C | 68% | 1012.1 hPa | 0 mm | 1.34 m/s, 221° | 44 W/m² | - |
| 1777979153 | 13.89° C | 68% | 1012.1 hPa | 0 mm | 1.34 m/s, 233° | 58 W/m² | - |
| 1777978853 | 13.89° C | 69% | 1012 hPa | 0 mm | 1.34 m/s, 177° | 56 W/m² | - |
| 1777978553 | 13.33° C | 69% | 1012 hPa | 0 mm | 1.34 m/s, 196° | 44 W/m² | - |
| 1777978255 | 13.33° C | 69% | 1011.9 hPa | 0 mm | 1.34 m/s, 189° | 39 W/m² | - |
| 1777977953 | 13.33° C | 69% | 1011.8 hPa | 0 mm | 1.34 m/s, 189° | 33 W/m² | - |
| 1777977653 | 13.33° C | 69% | 1011.9 hPa | 0 mm | 1.34 m/s, 206° | 33 W/m² | - |
| 1777977353 | 13.33° C | 69% | 1011.8 hPa | 0 mm | 1.34 m/s, 207° | 23 W/m² | - |
| 1777977053 | 13.33° C | 70% | 1011.7 hPa | 0 mm | 1.34 m/s, 171° | 19 W/m² | - |
* Rain latest hour (hover to see other rain measurements)
** Current wind speed in m/s (hover to see current wind gust speed)